Location: Remedello Sotto
(45.2500°N, 10.3667°E)
Time: 04:38:29
(UTC+00:00)

SL-16 R/B - Pass Details

Date: 03 February 2023
Orbit: 842 x 846 km, 71.0° (Epoch: 29 March)

Event Time Altitude Azimuth Distance (km) Brightness Sun altitude
Rises 18:30:48 0° 235° (SW) 3,390 6.3 -21.8°
Reaches altitude 10° 18:33:30 10° 245° (WSW) 2,459 5.5 -22.3°
Maximum altitude 18:38:30 31° 308° (NW) 1,431 3.8 -23.1°
Drops below altitude 10° 18:43:31 10° 10° (N) 2,474 4.5 -24.0°
Enters shadow 18:44:40 - 15° (NNE) 2,855 4.8 -24.2°
